Printer-friendly version

IAU Minor Planet Center

Minor Planet Center

MPEC 2007-M13 : 2007 MQ

The following Minor Planet Electronic Circular may be linked-to from your own Web pages, but must not otherwise be redistributed electronically.


Read MPEC 2007-M12 Read MPEC 2007-M14


M.P.E.C. 2007-M13                                Issued 2007 June 18, 23:18 UT

     The Minor Planet Electronic Circulars contain information on unusual
         minor planets and routine data on comets.  They are published
   on behalf of Commission 20 of the International Astronomical Union by the
          Minor Planet Center, Smithsonian Astrophysical Observatory,
                          Cambridge, MA 02138, U.S.A.

             Prepared using the Tamkin Foundation Computer Network

                              MPC@CFA.HARVARD.EDU
          URL http://www.cfa.harvard.edu/iau/mpc.html  ISSN 1523-6714

                                    2007 MQ

Observations:
     K07M00Q* C2007 06 18.22914 16 16 33.20 +00 01 35.5          17.7 V EM013703
     K07M00Q  C2007 06 18.23767 16 16 21.07 +00 04 44.9          17.9 V EM013703
     K07M00Q  C2007 06 18.24617 16 16 09.04 +00 07 54.6          17.9 V EM013703
     K07M00Q  C2007 06 18.25471 16 15 56.84 +00 11 05.8          17.8 V EM013703
     K07M00Q  C2007 06 18.29414 16 14 59.78 +00 26 01.6          17.9 V EM013703
     K07M00Q  C2007 06 18.29457 16 14 59.17 +00 26 11.7          17.9 V EM013703
     K07M00Q  C2007 06 18.29498 16 14 58.63 +00 26 20.4          17.9 V EM013703
     K07M00Q  C2007 06 18.29539 16 14 57.94 +00 26 31.0          18.1 V EM013703
     K07M00Q  C2007 06 18.36101 16 13 20.82 +00 52 06.0          17.8 V EM013703
     K07M00Q  C2007 06 18.36251 16 13 18.69 +00 52 42.2          17.8 V EM013703
     K07M00Q  C2007 06 18.36399 16 13 16.42 +00 53 17.0          17.5 V EM013703
     K07M00Q  C2007 06 18.36548 16 13 14.16 +00 53 51.3          17.4 V EM013703
     K07M00Q  C2007 06 18.86385 15 59 35.37 +04 42 37.5          18.0 V EM013595
     K07M00Q  C2007 06 18.86388 15 59 36.19 +04 42 28.4          18.3 V EM013198
     K07M00Q  C2007 06 18.86585 15 59 32.26 +04 43 31.7          18.3 V EM013198
     K07M00Q  C2007 06 18.86752 15 59 28.91 +04 44 24.9          18.2 V EM013198
     K07M00Q  C2007 06 18.86833 15 59 27.29 +04 44 50.9          17.9 V EM013198
     K07M00Q  C2007 06 18.86967 15 59 24.62 +04 45 33.7          17.8 V EM013198
     K07M00Q  C2007 06 18.86991 15 59 23.17 +04 45 51.4          17.4 V EM013595
     K07M00Q  C2007 06 18.87038 15 59 23.18 +04 45 56.5          17.9 V EM013198
     K07M00Q  C2007 06 18.89611 15 58 28.42 +04 59 48.5          18   R EM013461
     K07M00Q  C2007 06 18.89825 15 58 24.05 +05 00 57.7                 EM013461
     K07M00Q  C2007 06 18.90042 15 58 19.60 +05 02 08.3                 EM013461
     K07M00Q  C2007 06 18.91286 15 57 58.48 +05 08 42.3                 EM013J95
     K07M00Q  C2007 06 18.93076 15 57 21.24 +05 18 33.2                 EM013J95
     K07M00Q  C2007 06 18.93166 15 57 19.38 +05 19 02.4                 EM013J95
     K07M00Q  C2007 06 18.93255 15 57 17.52 +05 19 31.8          17.6 R EM013J95

Observer details:
198 Wildberg.  Observer R. Apitzsch.  0.35-m f/4.2 reflector + CCD.
461 University of Szeged, Piszkesteto Stn. (Konkoly).  Observer K. Sarneczky.
    0.60-m Schmidt + CCD.
595 Farra d'Isonzo.  Observers L. Bittesini, G. Lombardi, E. Pettarin,
    F. Piani.  Measurers G. Lombardi, E. Pettarin.  0.40-m f/4.5 reflector
    + CCD.
703 Catalina Sky Survey.  Observer R. A. Kowalski.  Measurers E. C. Beshore,
    A. Boattini, G. J. Garradd, A. R. Gibbs, A. D. Grauer, R. E. Hill,
    R. A. Kowalski, S. M. Larson, R. H. McNaught.  0.68-m Schmidt + CCD.
J95 Great Shefford.  Observer P. Birtwhistle.  0.40-m f/6.0 Schmidt-Cassegrain
    + CCD.

Orbital elements:
2007 MQ                                                  Earth MOID = 0.0122 AU
Epoch 2007 Apr. 10.0 TT = JDT 2454200.5                 MPC
M 329.77874              (2000.0)            P               Q
n   0.25654623     Peri.  238.57680     +0.98791658     +0.15262443
a   2.4529703      Node   112.63226     -0.13043376     +0.91268205
e   0.7399364      Incl.    1.67355     -0.08371300     +0.37910060
P   3.84           H   23.6           G   0.15           U   7
Residuals in seconds of arc
070618 703  0.0   0.6+    070618 703  0.9+  0.3+    070618 595  0.1-  0.4+
070618 703  0.9-  0.4+    070618 703  0.1+  0.2-    070618 198  0.3+  0.3+
070618 703  0.1+  0.3+    070618 703  0.3-  1.4-    070618 461  0.6-  0.5+
070618 703  0.1+  0.1-    070618 595  0.4-  0.0     070618 461  0.3-  0.2+
070618 703  0.3-  0.3-    070618 198  0.6-  0.3-    070618 461  0.2-  0.3+
070618 703  0.0   0.1-    070618 198  0.2-  0.2+    070618 J95  0.2+  0.3-
070618 703  0.9+  0.8-    070618 198  0.1-  0.1+    070618 J95  0.3-  0.3+
070618 703  0.5-  0.3+    070618 198  0.0   0.2+    070618 J95  0.0   0.4-
070618 703  0.8-  0.1-    070618 198  0.5+  0.2+    070618 J95  0.1+  0.5-

Ephemeris:
2007 MQ                  a,e,i = 2.45, 0.74, 2                   q = 0.6379
Date    TT    R. A. (2000) Decl.     Delta      r     Elong.  Phase     V
2007 06 19.0  15 55.01   +06 00.6    0.0308   1.040   139.7    39.2    17.7
2007 06 19.5  15 34.05   +11 38.0    0.0262   1.034   131.7    47.3    17.6
2007 06 20.0  15 03.55   +19 14.3    0.0223   1.028   120.7    58.2    17.5
2007 06 20.5  14 17.33   +28 57.4    0.0195   1.022   106.1    72.9    17.6
2007 06 21.0  13 07.35   +39 16.2    0.0181   1.016    88.0    91.0    18.1
2007 06 21.5  11 33.89   +46 22.8    0.0187   1.010    69.2   109.9    19.1
2007 06 22.0  10 00.57   +47 57.6    0.0210   1.004    52.9   126.1    20.6

Kyle E. Smalley              (C) Copyright 2007 MPC           M.P.E.C. 2007-M13

Read MPEC 2007-M12 Read MPEC 2007-M14


Our Web policy. Index to the CBAT/MPC/ICQ pages.


Valid HTML 4.01!